Theta_e
295 294 294 293 293 293 292 292 292 292 292 292 291 290 289 289 289 288 285 286 285 286 286 285 285 285 284 284 284 284 285 284 283 283 283 284 283 284 284 284 285 284 283 285 284 283 284 285 286 287 286 285 287 287 287 288 287 288 289 291 293 293 293 291 288 288 290 292 291 291 291 292 291 292 290 291 291 292 293 293 294 293 294 294 295
293 293 293 293 292 292 291 291 291 291 290 289 288 287 286 286 285 285 286 283 285 285 286 284 283 283 284 284 284 284 284 284 283 283 284 284 284 284 283 284 284 284 283 284 284 283 283 284 285 285 285 285 286 285 286 286 285 285 286 287 289 290 291 290 289 288 287 289 289 290 290 290 289 291 290 290 290 291 291 292 293 293 293 293 294
292 292 292 292 290 290 289 288 288 287 287 287 286 286 285 284 284 286 285 284 283 284 283 283 282 282 284 283 284 284 284 284 282 283 283 284 284 284 283 284 284 284 284 284 284 283 284 283 284 284 284 284 284 284 284 284 284 284 285 285 286 287 288 290 289 286 286 287 289 288 289 289 289 289 290 291 291 291 290 290 291 292 292 292 292
291 291 290 289 288 288 287 287 287 286 286 286 285 284 285 284 283 285 284 283 284 282 282 282 282 283 284 284 284 284 284 283 283 282 283 283 284 284 284 283 283 283 283 284 284 283 283 283 284 284 284 283 284 284 284 283 283 284 284 284 285 286 286 287 289 289 288 287 288 288 289 288 289 290 291 291 291 290 290 291 291 290 290 291 291
289 289 288 288 287 287 286 286 286 286 285 285 285 284 284 284 283 283 283 284 282 283 283 283 284 284 284 283 283 283 283 283 283 283 283 282 282 283 284 284 283 284 283 283 284 283 283 283 284 284 283 283 283 283 283 283 284 283 284 285 284 285 285 286 287 288 287 286 287 289 289 289 290 290 290 289 289 289 290 289 289 290 290 290 290
288 288 287 287 287 286 286 286 286 286 285 285 284 284 284 284 283 282 282 284 283 283 283 283 282 282 282 282 282 281 281 281 282 283 283 283 282 281 282 282 283 283 283 284 283 283 283 283 283 283 283 282 283 283 283 283 283 283 283 284 284 284 284 285 286 287 287 287 287 287 288 288 287 288 289 287 287 287 288 289 289 289 289 288 289
287 287 287 287 287 286 286 286 286 285 285 284 284 284 283 283 283 283 282 283 283 283 282 282 281 282 282 282 282 282 282 282 281 281 282 282 282 283 282 282 283 282 283 283 283 283 283 283 283 283 283 283 283 283 283 283 283 283 283 284 284 284 284 285 285 286 287 286 287 287 287 288 288 286 288 289 289 288 287 286 286 288 288 288 288
287 287 287 286 286 286 285 285 285 284 284 283 283 283 283 282 282 282 282 283 283 281 281 282 281 280 280 280 281 280 280 280 280 280 280 281 281 281 281 282 282 282 282 282 282 282 283 283 283 283 283 283 283 283 283 283 283 283 284 283 284 284 284 284 285 286 286 286 286 286 286 287 287 288 288 288 286 287 288 287 285 286 287 288 288
287 287 286 286 286 285 285 284 284 283 283 283 283 283 282 281 281 281 281 281 282 280 281 281 281 281 281 281 281 280 281 282 281 281 282 283 281 282 282 282 282 282 282 282 282 282 282 282 282 282 282 284 285 285 286 286 284 283 284 284 283 283 283 284 285 285 285 285 285 286 286 286 286 286 286 286 285 285 287 287 286 286 287 287 288
287 286 286 286 285 285 284 284 283 283 283 283 282 282 281 281 281 281 280 280 280 279 279 279 280 280 280 280 279 281 281 281 283 288 289 285 283 283 283 282 282 281 281 281 281 281 281 281 281 283 284 284 284 285 287 287 287 286 285 284 284 283 284 284 284 285 285 284 284 285 284 284 285 286 285 286 287 287 286 286 285 286 286 286 287
286 286 286 285 285 284 284 283 283 283 282 282 281 281 281 281 280 280 279 279 279 278 279 280 280 279 279 279 280 281 281 282 286 288 289 289 286 282 282 282 281 281 280 280 280 280 281 281 280 281 282 283 282 285 286 287 287 287 287 287 287 285 284 283 284 284 284 283 284 284 284 284 285 286 286 286 286 286 286 285 285 285 284 283 282
286 285 285 285 284 284 283 283 282 282 282 281 280 280 279 279 279 278 278 278 278 278 279 279 279 279 279 279 279 280 280 284 287 287 288 288 288 285 282 282 281 280 280 280 280 280 280 280 280 281 280 281 282 282 283 284 285 286 286 287 287 287 287 285 284 283 284 283 283 283 284 283 284 285 285 285 285 285 285 285 285 284 283 283 284
285 285 284 284 284 283 283 282 282 281 281 280 280 279 278 277 276 276 276 277 278 279 278 278 278 278 279 279 279 279 279 283 285 287 287 287 288 287 282 281 280 279 279 279 279 279 279 280 280 281 281 282 281 281 281 282 284 285 285 286 286 286 287 288 288 286 285 284 283 283 284 284 283 284 286 285 286 283 284 284 284 284 284 284 284
285 285 284 284 283 282 282 282 281 280 280 279 279 278 277 276 275 275 276 277 277 277 277 277 277 278 278 278 278 278 278 282 285 286 286 287 287 286 280 280 279 279 279 279 279 279 279 279 279 279 280 279 280 280 281 282 283 283 284 284 284 285 286 287 287 287 286 285 284 283 284 285 284 285 286 286 284 283 283 283 284 283 283 283 285
284 284 284 283 283 282 282 281 280 279 279 278 277 277 276 275 275 275 276 276 277 276 276 275 276 275 276 276 277 277 278 283 284 285 286 286 287 285 280 280 279 278 279 278 278 278 279 279 279 279 280 280 281 282 282 283 284 283 283 283 283 283 284 284 285 285 284 284 284 284 285 286 286 285 285 286 285 285 284 284 284 284 284 285 285
283 283 283 282 282 282 281 280 279 278 278 277 276 276 275 274 274 275 275 275 274 274 274 274 274 274 275 274 276 276 277 282 283 284 285 285 285 281 279 279 278 278 278 278 278 278 278 279 279 279 280 280 282 284 284 283 282 281 281 282 282 283 283 285 287 287 286 285 285 285 285 286 287 286 286 286 286 286 286 286 285 284 283 281 281
283 283 283 282 281 281 280 279 278 277 277 276 275 274 274 274 274 274 273 274 273 273 273 274 274 274 274 274 274 275 275 279 282 283 284 285 283 278 278 277 277 277 277 278 278 278 278 279 279 279 279 279 282 284 285 284 282 281 281 281 282 282 283 284 286 287 287 287 287 288 288 288 288 289 289 289 288 287 285 283 282 283 281 279 280
283 282 282 281 280 279 279 278 277 276 275 274 274 274 272 272 272 273 273 272 272 272 273 273 273 273 273 274 274 274 274 277 281 282 283 283 283 278 277 277 276 276 277 278 278 278 279 280 280 279 279 279 282 284 285 284 282 282 281 281 281 281 282 284 284 284 286 287 287 287 287 287 288 288 288 289 289 287 284 280 282 283 281 280 279
282 282 281 280 279 278 277 276 275 274 274 273 273 272 271 271 271 270 271 270 271 272 272 272 272 272 272 273 276 275 272 275 280 281 282 282 281 277 276 275 275 276 276 277 278 278 278 279 280 280 280 281 284 284 285 284 282 282 282 281 280 280 281 282 282 282 282 282 283 284 284 285 285 285 286 287 288 287 285 284 283 282 281 281 281
281 280 279 278 277 276 275 274 274 273 273 272 271 271 271 270 270 271 269 270 270 271 270 271 272 274 274 273 272 271 271 272 275 281 281 282 282 279 275 274 275 275 277 277 277 277 278 278 279 281 282 283 284 284 284 285 282 282 282 281 280 279 282 282 283 283 283 283 283 283 283 284 284 285 285 285 285 285 285 284 284 284 282 281 281
279 279 278 277 275 274 274 273 273 272 271 272 272 271 270 271 270 269 269 270 270 270 270 272 272 272 272 271 270 270 271 271 274 279 280 281 282 280 274 275 276 277 277 277 277 277 277 277 278 280 282 283 283 284 284 284 284 282 281 280 280 282 284 283 283 283 283 283 283 283 283 283 283 284 284 284 284 285 284 285 284 284 282 280 279
278 277 276 275 274 273 273 272 272 271 271 271 270 270 269 269 270 270 270 270 271 271 271 271 270 270 269 269 270 270 271 276 273 276 279 280 281 281 278 277 279 278 277 276 277 277 277 277 277 279 282 282 283 283 283 283 283 281 280 283 284 285 283 283 283 283 283 283 282 282 282 282 282 283 283 283 284 284 281 280 280 280 279 279 277
277 276 275 274 273 272 272 272 271 270 270 270 270 270 270 271 271 271 271 271 271 270 269 268 268 268 268 268 269 269 270 271 276 275 278 279 280 280 280 279 280 278 277 276 276 276 277 277 278 280 281 282 282 282 283 283 282 281 283 284 284 284 283 282 282 282 282 282 282 281 282 282 281 282 282 282 281 279 278 277 276 275 274 274 276
276 274 274 273 272 272 271 270 269 269 269 269 269 270 271 271 270 270 270 269 268 268 267 267 267 267 267 268 268 270 269 269 274 276 276 278 279 279 279 280 280 278 277 276 276 276 276 277 278 281 281 281 281 282 282 281 281 282 283 283 283 283 282 281 281 281 281 281 281 281 281 281 282 282 280 277 276 275 274 273 273 273 272 272 273
274 273 272 271 271 270 269 269 268 267 268 270 271 271 270 270 269 269 268 267 266 266 266 266 266 266 266 267 268 269 269 269 269 273 276 276 278 278 279 279 279 279 276 276 276 276 278 280 281 280 280 280 280 280 280 280 281 282 282 282 281 280 280 280 280 280 280 280 280 281 281 282 282 278 276 275 274 274 273 272 273 273 274 274 274
273 271 271 270 270 270 270 269 269 270 270 270 270 270 270 270 269 268 265 264 264 264 266 266 265 265 266 266 267 268 269 268 267 269 273 275 276 277 278 278 277 278 277 276 278 279 280 280 279 279 278 278 277 277 277 278 280 281 280 280 280 279 279 279 279 280 280 280 280 280 280 281 280 278 275 274 273 272 272 272 272 272 272 272 271
272 271 270 270 270 270 271 270 270 269 269 269 269 269 269 268 268 266 263 262 263 264 265 266 266 266 266 266 266 267 267 267 268 270 273 275 275 276 276 276 277 277 276 276 277 277 277 276 276 277 277 278 278 278 279 279 278 277 278 279 279 278 278 279 280 280 280 280 279 279 279 279 278 277 275 273 272 272 272 272 271 270 271 271 270
271 270 270 270 270 270 270 270 269 268 268 268 268 267 266 265 263 263 263 262 262 264 263 264 265 265 265 265 265 265 266 267 269 271 274 275 275 275 275 275 275 275 275 276 276 276 274 275 274 273 274 274 275 276 276 275 276 276 277 277 277 278 279 281 281 280 280 280 279 278 277 277 276 275 273 272 271 271 271 271 271 270 270 270 268
271 270 270 270 269 269 269 269 268 267 266 265 265 265 263 261 262 262 263 263 262 263 263 265 266 263 262 264 265 266 266 267 269 276 275 277 275 274 274 274 275 275 276 278 275 273 272 271 271 272 272 273 274 274 273 273 274 275 275 275 276 277 278 278 277 277 277 277 276 276 275 275 274 273 272 271 270 270 271 270 271 270 270 270 267
270 269 269 269 269 268 267 267 266 265 265 264 264 263 270 272 268 263 265 272 274 276 274 266 265 264 263 264 265 267 267 270 275 276 276 277 277 277 277 277 277 276 277 277 274 270 269 269 270 271 272 273 272 272 272 272 272 272 273 275 276 276 276 276 276 276 276 276 275 275 274 273 272 272 270 270 270 270 271 271 269 270 268 267 266
269 269 268 267 267 267 266 265 265 264 263 263 263 264 264 267 274 274 273 273 274 276 276 275 274 274 270 265 267 274 274 275 275 276 276 276 276 276 276 277 276 276 276 273 270 269 269 269 270 271 271 270 270 270 269 269 270 270 272 273 274 275 274 274 274 275 274 274 274 274 273 272 271 270 269 270 269 269 269 269 269 268 267 267 266
269 268 267 267 267 266 265 265 264 263 262 262 263 264 265 263 262 270 272 272 274 275 273 273 273 273 273 273 270 268 272 274 275 275 275 275 275 276 275 275 275 275 275 273 268 268 268 268 268 268 268 268 268 268 267 267 268 269 271 271 271 272 273 273 273 274 274 274 273 273 272 271 270 270 270 269 269 268 268 267 267 267 267 266 266
269 268 266 266 266 265 265 264 263 263 262 262 261 262 263 264 264 263 266 271 273 272 271 271 271 271 272 272 273 272 272 273 274 274 274 274 275 274 273 273 273 274 272 267 265 265 266 266 266 266 266 265 266 265 266 266 267 268 270 270 270 271 272 273 273 273 273 273 273 272 271 270 270 269 269 269 268 267 267 266 266 266 266 265 265
267 266 266 266 265 265 264 264 263 263 262 262 262 262 262 263 263 264 263 262 262 265 269 269 269 270 271 271 271 271 272 273 273 273 273 273 273 273 271 268 271 271 270 264 264 263 264 264 264 264 264 265 265 265 265 265 266 267 268 269 269 270 271 271 271 272 273 273 272 271 270 270 269 269 268 268 268 267 266 266 266 266 265 265 264
263 264 265 265 265 264 264 264 263 262 262 262 262 262 262 262 263 262 261 261 258 257 254 257 265 269 267 267 269 271 271 272 272 272 272 272 272 271 268 263 262 263 263 263 263 263 263 263 262 263 263 263 263 264 264 264 265 267 267 267 267 268 269 270 271 272 272 272 271 270 270 269 269 269 268 267 267 266 266 266 266 265 265 264 264
263 264 264 264 263 263 263 262 262 262 262 262 263 262 263 263 262 260 259 259 257 256 257 255 258 265 268 267 268 269 270 271 271 270 270 271 270 268 260 261 261 261 261 261 261 262 262 262 262 261 262 262 262 263 263 264 265 265 265 265 266 266 267 269 270 271 272 271 271 270 270 269 269 268 268 267 267 266 266 266 265 265 265 265 265
262 263 263 263 262 262 262 261 261 262 264 262 262 262 261 261 260 259 258 257 257 256 255 254 254 255 262 262 264 267 269 269 269 268 268 268 268 263 259 260 260 260 260 260 260 261 260 260 260 260 261 261 261 262 262 263 264 264 264 264 265 265 266 268 269 270 270 270 270 270 269 269 268 268 268 267 266 266 266 265 265 265 265 265 265
262 263 262 262 261 262 261 261 262 264 263 263 263 261 261 260 261 260 259 257 258 257 255 254 260 255 255 256 263 262 263 266 265 264 264 264 261 259 259 259 259 258 258 259 260 259 259 259 259 259 260 260 260 261 262 262 262 262 262 262 263 263 266 267 269 269 270 270 270 269 269 269 269 268 268 266 265 265 265 265 265 264 264 265 265
261 263 264 264 263 262 262 262 263 263 262 262 260 260 261 261 260 259 259 257 256 255 255 254 254 254 254 256 256 262 262 257 257 256 257 257 258 257 256 256 257 257 258 258 259 259 258 258 259 259 259 259 260 260 261 261 261 261 261 261 261 262 263 264 266 268 268 269 269 269 269 268 268 267 267 266 265 265 265 265 264 264 263 263 262
261 262 264 264 264 264 262 262 262 261 261 260 259 260 261 261 259 259 257 254 253 254 254 255 255 254 255 257 259 261 259 257 255 255 255 256 256 256 255 255 256 256 257 257 257 257 258 258 258 258 258 258 259 259 260 260 260 260 260 260 260 260 261 263 264 266 267 268 268 269 269 268 267 267 266 266 266 266 265 265 264 264 263 261 260
262 263 263 264 263 263 262 261 261 261 261 261 261 260 260 260 259 257 255 255 255 255 255 254 253 253 255 261 265 264 258 255 254 255 255 256 256 255 254 254 256 256 257 258 258 258 258 258 258 258 258 258 259 259 259 260 260 260 260 260 260 260 261 262 263 264 265 266 267 268 268 268 267 266 265 266 267 266 265 264 263 262 261 260 260
261 262 263 263 263 262 261 261 261 261 261 261 260 259 259 260 259 257 255 255 256 256 253 253 252 252 259 264 264 264 256 253 255 255 255 255 255 254 255 254 254 255 256 257 257 258 259 259 258 258 258 258 258 259 259 259 260 260 260 260 260 260 260 261 262 263 264 264 266 267 268 268 267 267 267 267 265 265 264 263 262 261 261 261 260
262 263 263 263 262 262 261 261 261 261 260 260 260 260 260 259 258 258 258 257 256 255 254 253 253 254 256 262 261 262 255 251 257 255 254 254 254 255 254 253 253 254 255 255 256 257 258 258 258 258 257 258 258 259 259 260 260 261 261 260 260 260 260 261 262 262 263 263 265 266 267 267 267 266 265 265 265 265 264 263 262 261 261 261 261
262 262 262 262 262 262 261 261 261 261 261 261 260 260 260 259 258 258 258 257 255 255 255 254 253 253 253 256 258 255 252 252 251 251 252 255 254 254 253 252 253 254 254 254 255 256 257 257 258 258 258 257 258 258 259 260 261 261 261 261 260 261 261 261 261 262 262 263 264 266 266 266 266 266 265 265 265 265 264 263 262 261 261 260 260
262 262 261 261 261 261 261 261 261 261 261 261 260 260 260 259 258 258 257 256 256 255 255 254 254 254 254 252 252 252 251 251 254 254 253 252 252 253 252 252 253 253 254 255 254 254 255 256 257 257 257 257 257 257 258 260 261 262 262 262 261 261 261 262 262 262 263 263 264 265 266 266 265 265 265 265 265 265 264 263 262 262 261 260 260
261 261 261 261 261 261 261 261 261 260 260 260 260 259 259 259 258 257 256 255 255 255 254 254 253 253 253 252 252 254 252 250 251 251 253 252 252 252 251 251 252 252 253 253 254 253 254 254 255 255 256 256 257 257 258 259 260 261 262 263 263 263 263 263 263 263 263 263 264 264 265 265 265 265 265 265 265 264 264 263 263 262 261 261 260
261 261 261 261 261 261 261 260 260 260 260 259 259 259 258 257 257 256 257 256 255 256 255 253 252 251 252 251 252 251 252 252 252 251 251 252 250 251 251 250 252 252 252 253 251 253 253 254 254 255 255 256 256 257 257 258 259 261 262 263 263 264 264 263 263 263 262 263 264 264 264 264 264 264 264 264 264 264 263 263 263 262 261 261 260
261 261 261 261 261 260 260 260 260 260 259 259 259 258 258 257 257 257 256 255 255 255 255 253 252 251 253 252 252 252 252 251 251 252 252 251 249 250 250 249 251 252 252 252 252 252 253 253 254 254 255 255 256 256 257 257 259 260 262 263 264 264 264 263 263 263 262 262 263 264 264 264 264 264 263 263 263 263 263 262 262 262 261 261 261
260 260 260 260 260 260 260 260 260 260 259 259 259 259 258 258 257 257 256 255 254 254 255 254 252 251 251 252 251 251 251 252 251 250 250 250 249 248 250 249 251 251 251 252 252 252 253 253 254 254 254 255 255 256 256 257 258 259 261 263 264 264 264 263 263 263 262 262 262 263 263 263 263 263 263 263 263 263 262 262 262 261 261 261 260
259 260 260 260 260 260 261 260 260 260 259 259 259 258 258 258 257 257 256 255 253 254 254 253 252 252 252 252 252 251 250 250 250 250 250 249 249 249 249 249 249 249 250 250 252 252 252 252 252 253 254 254 255 255 256 257 257 259 260 262 264 264 264 264 263 263 262 261 261 262 262 262 262 262 262 262 262 262 262 261 261 261 260 260 260
260 260 260 260 260 260 260 260 259 259 259 258 258 258 257 257 257 257 256 255 255 255 254 253 253 252 252 252 252 251 251 251 251 249 249 249 249 248 249 250 250 248 249 250 251 251 251 251 252 253 253 255 255 255 255 256 257 258 260 263 263 263 263 263 263 263 262 261 260 261 261 261 261 261 261 261 261 261 260 260 260 260 260 260 259
Wind_Speed
7 6 7 8 8 8 8 8 8 7 7 7 8 6 5 5 5 5 4 4 4 5 6 5 5 5 4 4 4 4 4 4 4 4 4 4 4 4 4 4 4 4 4 6 4 4 4 5 6 6 5 5 6 6 5 6 5 5 5 6 7 6 7 10 12 17 19 14 10 13 14 11 14 10 10 12 11 9 11 10 11 12 11 11 12
7 7 6 7 8 8 8 6 7 7 8 6 7 6 5 5 5 4 6 4 4 5 5 4 4 4 4 4 4 4 4 4 4 4 5 5 5 3 3 4 4 4 4 5 5 4 4 5 7 6 5 6 7 7 6 6 5 5 6 6 8 7 6 8 11 13 19 19 17 12 12 5 14 13 11 12 14 13 13 12 10 11 11 10 11
6 6 7 8 8 7 8 7 7 7 8 6 7 6 5 4 4 6 6 5 4 5 4 4 4 4 4 4 4 4 4 4 4 4 4 3 4 4 3 3 4 4 5 5 5 4 5 5 7 6 5 6 7 7 5 6 5 6 7 6 8 9 7 8 10 13 16 18 17 15 13 10 11 15 12 11 12 13 17 14 11 10 11 11 11
6 7 8 8 8 8 8 7 8 7 8 6 7 5 5 5 4 6 5 4 5 3 3 3 4 4 5 5 5 4 4 4 4 4 3 4 4 4 4 4 4 4 4 5 6 5 6 7 8 7 6 7 8 7 6 5 6 6 7 7 7 10 9 8 10 11 12 15 16 14 11 10 15 11 9 10 12 12 11 14 13 13 13 12 11
7 7 8 10 8 9 8 7 8 8 8 6 7 6 5 5 4 5 5 5 4 4 4 4 5 5 5 4 4 4 4 4 4 4 4 3 3 4 4 4 4 5 5 5 6 5 6 6 8 7 6 7 9 7 8 8 7 7 8 9 8 9 8 9 10 10 13 16 17 15 15 14 14 15 10 11 13 11 11 14 14 15 15 13 11
7 9 8 10 9 9 8 7 8 8 8 7 7 6 6 5 5 4 4 5 4 5 5 5 4 4 4 3 3 3 4 4 4 4 4 4 3 3 4 4 5 5 6 6 5 5 6 7 7 7 7 7 10 9 8 9 8 8 9 9 10 8 10 10 9 11 12 14 14 17 13 16 16 12 11 8 10 14 14 14 14 13 12 12 10
8 8 8 8 9 8 8 8 8 8 7 7 6 6 6 5 5 5 4 5 5 5 4 4 3 3 3 3 4 4 4 4 4 4 4 4 4 4 4 4 4 4 5 6 6 6 6 7 7 7 8 8 9 10 10 10 9 10 9 9 11 9 10 10 10 11 11 13 14 15 15 14 12 19 13 10 13 11 14 13 15 13 13 14 15
8 8 9 8 8 8 7 7 7 7 6 6 6 5 5 5 4 4 5 6 5 4 4 3 3 2 3 3 3 3 3 3 3 3 4 4 4 4 4 4 5 6 5 6 6 6 7 7 7 7 8 8 8 9 8 10 10 12 9 7 9 11 12 11 10 9 11 11 11 13 7 12 12 11 11 12 13 11 8 11 15 16 15 15 15
9 9 8 9 8 7 7 6 6 6 6 6 6 5 5 4 4 5 5 4 4 3 3 3 3 4 4 4 4 3 3 4 3 3 4 5 4 4 4 5 6 7 7 7 7 7 7 6 6 7 8 12 14 14 13 12 10 12 13 9 9 10 11 11 10 10 10 10 14 10 13 12 13 11 12 11 12 12 12 11 15 14 14 15 16
10 9 9 9 8 7 7 6 6 6 6 6 5 5 5 5 5 5 4 3 3 3 3 3 3 4 4 4 4 3 3 3 5 10 8 5 5 5 5 5 6 6 7 8 7 6 7 6 6 10 13 14 14 15 14 15 16 13 12 11 12 11 12 13 12 10 10 13 12 13 15 13 13 11 11 11 10 12 13 13 14 14 14 15 14
8 9 9 7 7 7 7 7 6 7 5 5 5 5 5 5 5 4 4 4 3 3 3 4 4 4 4 4 4 4 4 4 10 11 11 12 6 5 5 6 5 5 6 6 8 9 8 6 5 7 8 10 10 13 18 15 16 18 19 19 16 13 13 14 14 12 12 13 12 13 13 15 15 12 13 14 13 13 13 13 15 15 15 16 18
10 8 8 8 7 8 7 7 7 6 5 5 5 4 5 5 5 4 3 4 3 3 6 4 4 4 4 4 4 5 5 7 12 12 12 13 10 6 4 5 5 5 5 6 7 7 9 9 7 4 5 7 9 10 12 17 19 18 19 19 19 19 19 15 14 13 12 14 15 14 14 15 15 13 12 11 12 12 12 15 15 16 16 15 14
9 9 8 8 8 7 7 8 7 6 5 5 4 5 5 4 4 3 3 1 3 6 4 5 4 4 4 5 4 5 4 8 12 13 13 13 13 9 5 4 6 6 6 6 7 7 8 9 10 7 3 9 9 9 11 12 17 20 20 19 18 19 18 20 20 16 14 15 14 17 14 14 17 13 14 14 14 18 19 17 16 16 17 19 16
9 9 8 8 8 7 7 7 7 6 5 5 5 5 4 4 3 2 2 3 5 5 4 5 4 4 4 4 4 4 5 8 12 13 13 13 13 10 4 5 5 5 6 7 6 7 7 9 10 11 8 6 5 7 10 13 14 14 13 12 11 13 16 17 17 19 16 13 13 17 15 15 16 17 14 13 17 17 17 18 17 18 19 20 20
9 9 9 8 8 8 8 7 7 6 6 5 5 4 4 3 3 2 3 4 4 4 3 3 3 3 4 4 4 4 5 10 12 12 13 13 14 9 5 5 5 5 5 5 6 6 7 8 8 10 10 9 8 12 12 13 15 15 16 17 17 14 13 11 10 11 13 13 15 17 17 16 16 16 16 14 15 17 16 20 20 18 18 19 19
9 8 9 8 8 7 8 8 7 6 6 5 5 4 4 3 3 2 3 3 3 3 3 2 2 3 3 4 4 4 5 10 11 12 13 13 13 6 5 6 6 7 6 4 5 5 6 7 9 10 11 11 12 22 20 17 15 16 17 16 16 14 13 12 19 19 17 17 16 16 16 18 23 21 19 19 17 16 17 14 14 15 16 16 17
10 9 9 9 8 7 7 8 7 6 6 6 5 4 4 3 3 1 4 3 3 3 2 1 2 2 3 3 4 4 4 8 11 13 13 15 10 5 6 6 7 8 8 6 6 5 5 6 8 11 12 12 18 25 24 24 14 15 15 16 15 16 14 14 18 22 24 28 30 33 34 33 31 30 31 33 23 19 16 16 16 15 17 17 16
9 9 9 8 8 7 7 7 8 7 6 6 5 4 2 1 2 1 3 3 3 2 2 2 2 2 2 4 4 4 4 7 11 13 14 15 11 7 6 7 8 7 9 8 6 6 7 11 11 10 12 13 22 26 26 20 14 14 15 16 18 17 15 13 13 15 22 25 25 25 25 26 27 29 29 28 27 22 14 17 17 16 16 16 17
10 10 9 7 7 7 7 6 6 7 7 5 5 5 4 3 1 2 3 3 1 1 2 2 2 3 2 3 6 4 4 6 10 13 14 15 11 5 6 7 8 9 9 11 11 8 7 8 13 15 16 19 27 25 27 22 15 14 14 16 16 16 15 14 16 17 16 17 17 18 17 19 17 15 16 24 23 20 16 15 13 14 15 17 17
8 7 8 8 7 7 6 7 6 7 7 5 4 4 3 3 3 3 3 3 2 2 1 1 2 3 3 2 3 3 2 4 5 13 13 14 15 8 5 7 10 11 10 10 13 13 11 8 10 17 23 25 26 28 27 28 19 15 12 11 14 16 13 15 16 16 16 17 18 18 18 17 15 13 12 12 13 13 14 11 11 12 14 16 16
8 8 8 8 7 7 6 6 8 5 4 5 4 3 3 3 3 4 3 3 3 2 2 2 2 2 3 2 1 3 2 4 6 13 13 14 16 13 5 7 8 10 10 11 10 12 12 12 11 18 24 25 26 28 28 28 26 17 14 12 13 19 24 15 18 21 17 17 16 16 15 14 13 12 12 12 12 11 9 9 10 11 13 14 16
9 9 9 8 7 7 7 6 5 5 4 5 6 4 3 3 3 4 3 3 3 3 2 1 0 1 2 1 1 2 3 6 5 9 13 14 15 17 9 7 11 11 11 11 9 8 9 10 11 19 28 28 28 28 29 27 29 17 16 25 30 30 22 17 15 14 14 14 14 14 14 14 13 13 13 13 11 6 7 9 11 12 12 10 11
9 9 8 8 7 7 6 6 6 4 4 4 5 5 3 4 4 4 3 3 4 3 1 0 1 1 0 1 1 2 2 2 9 6 10 14 15 15 16 12 17 10 9 11 11 11 10 12 13 24 29 29 28 29 27 29 22 16 28 29 29 31 24 13 13 13 13 13 13 13 14 14 14 14 13 10 8 10 11 11 11 10 8 9 9
9 9 8 7 7 7 6 6 5 4 4 4 4 5 5 4 4 3 3 4 4 2 1 0 0 2 3 4 2 2 2 2 5 9 9 15 15 16 16 17 18 11 10 9 12 13 14 13 17 29 29 29 28 27 26 24 18 26 27 29 29 25 14 13 12 13 13 13 12 11 13 13 14 11 8 9 11 11 11 10 9 8 7 6 6
10 9 8 8 7 6 6 5 4 4 3 4 6 5 5 4 5 3 4 3 2 1 1 1 2 2 3 4 4 4 3 3 3 7 13 13 15 15 16 18 17 19 12 9 11 12 18 26 27 26 26 27 28 26 21 21 25 25 27 27 24 12 12 11 12 13 13 12 13 14 14 14 12 8 10 11 11 9 7 7 6 6 6 6 6
10 9 8 8 7 7 7 6 5 4 4 3 4 3 5 5 5 5 4 3 1 1 1 1 1 1 2 2 3 4 4 3 3 3 5 9 10 14 16 17 17 18 17 14 19 24 23 23 25 24 22 20 16 13 13 14 23 26 27 24 12 11 11 12 12 11 12 13 13 13 13 13 13 12 9 8 9 8 7 7 7 6 6 6 5
10 9 9 8 7 7 7 6 6 5 5 4 4 4 4 5 5 5 5 3 2 1 1 1 1 2 2 3 3 4 4 3 4 4 5 6 6 7 9 9 13 14 10 10 12 11 16 16 15 20 18 24 22 20 17 16 15 14 12 9 10 11 11 11 12 13 12 12 13 13 13 13 12 11 10 9 9 7 5 5 5 5 5 5 5
11 10 10 8 7 7 6 6 7 6 5 4 5 4 3 4 5 6 6 5 3 1 1 1 2 2 3 3 4 4 5 4 5 7 8 8 8 7 7 8 8 8 9 10 11 12 12 14 15 11 10 11 10 7 7 10 10 10 9 10 10 11 12 16 14 11 9 10 11 11 12 12 12 11 9 8 7 6 5 4 4 4 5 4 3
8 9 8 7 7 6 5 6 6 6 6 4 3 3 5 5 5 2 3 4 3 4 3 1 2 1 2 2 4 5 4 5 5 10 11 14 12 11 9 9 9 8 12 19 14 10 9 8 9 10 9 10 11 13 13 11 13 11 11 8 9 11 11 9 11 12 13 11 12 11 12 10 11 10 8 8 6 5 5 4 4 4 4 4 5
9 9 8 7 7 7 7 6 6 6 6 6 5 2 2 6 4 4 1 4 7 3 5 2 3 3 2 3 1 2 4 5 12 16 15 16 16 18 17 19 19 16 19 22 13 9 9 10 10 11 11 11 13 13 13 13 15 14 12 13 12 12 10 11 11 12 11 11 10 11 10 10 10 10 8 7 5 5 5 5 4 4 4 5 5
9 8 8 8 8 8 8 8 6 5 5 6 6 7 6 3 7 6 4 4 4 5 8 9 8 6 3 0 3 7 9 11 13 14 15 15 16 16 17 17 18 19 21 15 10 9 10 11 11 11 12 12 12 12 13 13 13 13 14 14 12 12 14 13 12 12 12 11 11 9 9 9 9 8 7 6 5 5 4 4 4 5 5 4 5
11 10 9 8 8 8 7 7 7 6 5 4 6 7 7 7 2 4 5 4 4 7 7 7 6 6 6 5 2 1 7 11 13 14 14 15 15 16 16 16 16 17 18 16 9 10 10 11 11 11 12 13 13 12 12 12 12 12 13 14 15 14 14 12 14 12 12 11 11 10 10 9 8 7 5 5 4 4 4 4 4 4 5 5 5
10 10 9 9 8 8 8 7 7 7 8 7 6 6 7 7 8 4 2 2 5 4 6 6 5 5 5 5 7 8 8 10 12 13 14 14 15 15 15 14 15 17 15 8 6 7 8 9 9 10 10 11 12 12 12 12 11 11 11 12 14 14 11 11 14 13 13 12 11 9 9 8 7 6 5 5 4 4 4 4 4 4 4 5 6
7 9 10 11 10 9 8 8 8 7 6 6 6 7 5 6 7 7 7 2 1 4 5 4 3 4 4 6 7 9 9 11 11 13 13 14 16 16 15 10 14 16 14 8 8 8 8 8 9 9 10 10 10 11 11 11 11 12 11 12 11 12 13 14 12 11 9 11 9 9 8 7 6 5 5 4 4 3 4 4 4 3 4 4 5
6 6 9 9 8 9 8 7 7 7 7 7 7 6 6 5 6 6 7 8 7 3 1 3 5 1 2 4 7 8 9 10 11 13 14 15 16 17 13 8 10 9 8 7 8 7 8 9 9 10 10 10 11 11 12 12 12 12 12 13 13 12 11 12 12 12 10 10 10 8 7 6 6 5 4 4 4 4 4 4 4 4 4 4 4
6 7 7 8 7 6 7 7 7 7 7 7 6 6 6 6 6 5 4 4 4 1 2 3 2 4 3 5 7 8 9 10 11 12 13 14 15 15 9 8 6 7 7 7 7 8 7 8 9 9 9 9 10 10 10 10 11 11 13 13 14 14 14 13 12 12 12 10 9 8 7 5 5 5 4 4 4 4 4 4 4 4 4 4 3
7 7 7 7 6 6 6 6 6 6 6 7 6 6 6 6 6 5 6 6 4 4 5 3 2 3 1 2 3 6 9 9 11 11 12 13 14 8 5 5 5 5 6 6 7 7 7 7 7 8 8 9 9 9 9 10 10 12 13 12 13 13 13 13 12 12 11 10 10 8 6 5 5 4 3 3 3 3 3 3 3 4 4 5 4
6 7 7 7 7 7 7 7 7 7 6 5 4 5 6 6 6 6 6 6 5 5 5 5 3 1 0 2 4 2 5 7 8 8 8 8 8 6 5 4 3 3 4 5 6 6 6 7 6 7 8 8 9 9 9 9 10 10 11 12 13 12 19 16 16 13 12 10 9 7 6 5 4 4 4 3 2 2 3 3 2 3 4 5 4
5 6 8 10 8 7 7 7 7 7 7 6 6 6 7 6 6 6 6 5 4 5 5 4 4 3 2 2 2 1 5 3 5 4 5 4 4 3 2 3 3 3 3 4 5 6 6 7 7 7 7 8 9 8 9 9 9 9 10 10 12 12 13 12 13 12 11 11 10 7 5 4 4 4 3 2 2 2 2 2 2 2 3 4 4
7 6 8 12 7 7 7 7 7 7 7 8 7 7 6 7 7 7 7 7 6 5 6 6 5 4 3 2 1 2 4 2 1 2 2 3 3 4 2 2 3 3 4 5 5 5 6 6 6 7 8 8 8 8 8 9 9 9 9 9 10 12 12 12 12 12 12 11 10 8 6 4 3 3 3 3 2 2 2 2 1 2 3 5 5
7 6 6 9 8 7 6 7 7 8 7 7 7 7 8 7 7 7 6 6 5 4 5 7 6 4 3 3 2 5 5 1 1 1 2 2 2 3 3 3 2 3 4 4 5 6 6 6 6 6 7 7 8 8 8 8 9 9 9 10 9 9 10 10 10 10 11 11 11 9 6 4 4 3 2 2 2 3 2 2 3 4 4 3 4
7 8 9 8 9 8 8 8 8 8 7 7 9 8 7 6 6 6 6 4 6 6 5 5 5 3 3 3 3 3 4 1 1 3 2 2 3 3 3 3 3 3 4 4 5 6 6 6 6 6 7 7 8 8 8 8 8 9 9 10 10 10 9 10 10 10 11 11 11 10 8 5 3 2 1 2 2 2 2 3 3 4 5 5 5
8 8 8 7 8 9 9 8 7 9 9 8 8 5 5 6 6 6 5 5 4 5 4 4 4 2 2 2 2 1 2 1 3 1 2 3 3 3 3 4 4 4 4 5 5 5 5 6 6 6 6 7 7 7 8 9 9 9 9 9 10 10 8 8 9 9 9 10 10 11 9 5 4 3 2 1 1 1 2 3 3 4 4 4 4
8 7 5 7 7 7 5 7 8 6 7 7 6 6 6 6 5 5 5 5 5 4 4 5 4 2 2 2 1 1 1 1 2 3 3 3 3 4 5 4 4 4 5 5 5 5 5 5 6 6 6 6 6 7 7 7 8 8 8 9 8 8 9 9 9 9 9 10 10 10 8 6 4 3 2 1 1 1 2 2 3 4 4 4 4
7 9 8 6 6 5 6 5 5 7 6 6 6 6 6 6 5 5 5 5 5 4 4 4 4 3 3 1 1 1 2 2 3 4 3 4 4 5 5 4 4 5 5 5 5 5 4 5 5 6 7 7 6 6 7 7 7 7 7 8 9 9 9 10 9 9 8 9 9 9 8 6 5 3 3 1 0 1 1 1 2 2 3 4 4
8 7 6 5 5 4 5 6 6 8 8 8 9 8 6 5 5 5 6 5 4 3 4 5 5 4 3 1 1 3 2 2 4 4 5 4 5 5 4 5 5 5 5 6 6 5 5 5 5 6 7 7 7 7 7 7 8 8 7 7 7 8 8 8 9 8 8 8 8 8 7 6 5 4 3 1 1 1 1 2 2 1 1 3 4
5 5 6 4 6 4 4 6 7 8 8 7 7 8 7 6 6 5 6 6 4 5 5 6 6 4 2 2 2 2 4 3 5 4 5 5 4 5 6 5 5 5 5 6 4 5 5 5 5 5 6 6 7 7 7 7 7 7 7 7 7 8 8 9 9 8 8 9 8 7 7 6 5 3 3 1 1 1 2 2 2 3 2 2 4
6 6 6 6 6 6 6 6 6 5 7 7 7 7 6 6 5 5 5 5 5 4 5 6 6 5 3 2 3 3 4 4 4 5 5 5 5 5 6 4 5 5 5 5 5 5 5 5 6 6 6 7 6 7 7 7 7 8 7 7 7 8 11 12 9 9 8 8 8 7 7 6 4 3 2 2 1 1 2 2 2 2 3 3 4
8 6 4 5 6 6 6 7 6 7 6 6 5 5 5 5 5 5 5 5 5 4 5 7 7 5 3 3 3 5 4 6 5 6 5 6 5 5 5 4 5 6 6 5 5 5 6 5 6 6 6 6 6 6 6 6 7 7 8 7 10 18 17 15 11 9 12 8 7 7 6 5 4 3 3 2 1 1 2 2 3 3 3 3 4
9 10 8 7 7 6 5 7 6 8 6 8 8 8 6 6 7 6 6 5 5 5 6 6 7 5 4 4 5 5 4 6 5 6 6 5 6 5 5 5 5 5 6 5 5 5 5 5 6 6 6 6 6 6 6 6 6 8 8 9 16 18 17 18 15 15 12 8 8 6 6 5 4 3 3 1 1 2 3 3 3 3 3 4 4
7 6 7 8 6 8 11 8 7 10 10 10 9 10 9 8 7 6 6 6 6 6 6 6 6 5 5 5 6 5 6 6 6 6 6 6 5 4 5 6 6 5 5 5 5 5 5 5 6 6 6 6 6 6 6 6 6 7 12 17 17 16 16 14 11 12 15 12 7 6 5 5 4 4 3 2 1 1 2 3 3 3 4 3 4
Wind_Direction
117 124 123 118 117 115 116 113 110 110 106 106 108 113 113 110 108 124 114 98 117 93 85 84 82 87 83 73 74 62 57 45 35 54 56 36 18 18 14 22 15 341 348 329 338 341 325 309 298 293 293 292 284 287 286 281 281 271 264 264 262 251 253 263 274 282 290 286 281 286 301 310 299 299 304 304 304 295 289 295 297 292 289 289 289
131 130 120 118 115 116 112 108 111 108 107 105 108 109 110 114 129 118 100 94 89 89 87 87 93 93 85 79 72 65 54 48 30 39 36 20 358 1 359 356 352 330 340 323 319 320 311 302 295 291 288 283 287 286 280 286 278 273 264 252 258 257 236 252 265 278 286 298 297 290 286 281 288 294 303 306 304 306 299 294 288 285 287 287 289
123 120 120 118 115 112 113 111 110 111 110 112 111 113 116 113 115 103 94 88 69 85 97 94 97 97 81 65 52 44 36 31 22 32 23 14 352 331 335 334 319 319 324 311 309 313 314 303 295 297 302 300 289 283 284 277 270 263 265 254 257 258 246 235 257 267 278 285 289 296 292 295 280 294 298 293 293 297 298 297 295 292 286 283 281
123 119 116 113 117 117 115 119 116 120 116 122 117 116 109 99 90 90 92 86 82 75 81 89 74 59 52 37 35 27 22 11 2 11 0 352 341 325 321 318 299 293 290 297 304 310 303 306 297 302 306 300 293 294 287 274 274 275 273 266 259 265 257 248 243 257 271 284 287 290 294 304 294 290 290 287 286 288 286 294 294 288 287 283 277
124 123 126 124 124 123 127 130 128 126 122 122 115 110 101 97 83 91 91 78 75 73 52 46 50 46 43 34 16 10 4 1 356 347 343 342 320 307 307 306 300 297 292 288 291 289 289 279 286 295 296 294 295 295 295 296 289 281 276 277 269 266 266 256 253 250 260 263 278 282 288 285 284 291 294 299 300 289 291 291 290 290 289 283 278
132 131 134 130 133 133 137 136 132 128 124 119 115 113 109 101 100 83 97 91 70 59 56 41 49 34 33 19 16 4 358 357 343 323 316 318 316 303 291 290 291 292 294 290 285 281 276 281 284 288 292 289 291 293 294 289 289 282 277 277 273 269 269 266 259 258 257 264 271 285 282 288 296 285 296 290 289 297 298 295 294 287 284 286 278
140 137 139 136 137 141 141 139 133 128 124 122 120 112 107 108 99 98 94 87 75 57 40 41 24 30 9 13 11 2 349 340 327 319 317 318 312 308 304 298 289 284 279 280 281 278 276 278 285 286 285 284 285 289 293 292 287 281 277 278 280 279 274 273 271 266 263 268 270 266 279 280 280 293 299 294 287 285 295 298 296 302 301 297 293
142 143 142 141 140 140 138 136 127 123 121 116 111 109 104 97 97 93 83 74 72 66 51 30 354 30 15 15 354 357 343 330 322 314 307 301 305 301 298 299 299 296 293 291 289 286 284 284 283 283 279 279 279 284 285 290 292 291 284 274 280 286 285 284 278 270 270 269 266 278 260 277 284 270 283 293 293 286 271 289 297 302 298 297 293
147 149 147 142 143 140 133 126 120 116 113 108 102 98 93 90 81 75 74 74 66 64 62 52 31 12 5 9 355 351 339 317 309 318 322 322 314 309 305 304 301 302 302 300 297 294 291 282 280 279 277 276 277 279 281 281 290 295 295 295 288 283 285 285 280 279 270 268 275 266 278 279 277 285 293 294 295 297 303 294 286 285 291 292 290
152 151 146 143 140 136 128 121 119 113 108 107 107 102 95 87 83 77 72 72 66 52 44 46 53 36 5 351 351 346 335 326 328 331 333 324 317 313 310 303 302 300 302 303 300 293 289 290 285 280 284 287 288 287 283 282 284 279 286 297 299 296 292 292 287 280 279 282 279 288 289 286 291 294 292 288 292 290 283 285 291 300 295 288 284
154 149 145 144 137 131 125 123 119 111 114 108 103 98 92 88 81 77 68 65 60 47 55 42 27 17 7 350 344 347 342 335 335 336 329 326 319 306 301 300 297 298 298 297 302 306 303 294 288 293 292 292 293 295 306 291 291 292 289 287 285 288 294 292 290 292 292 285 286 287 284 287 290 292 290 294 291 291 295 297 298 296 293 296 297
153 149 143 140 137 132 129 124 116 117 111 107 103 100 94 86 81 80 72 50 35 55 49 36 24 10 359 354 353 344 338 329 332 327 326 327 326 315 304 303 303 302 297 298 300 303 306 308 306 299 293 295 303 304 301 304 304 298 296 293 288 282 283 285 293 294 289 291 293 289 292 291 295 292 292 295 295 299 297 295 289 285 285 282 280
150 145 146 140 137 133 130 125 122 118 114 109 104 94 94 87 77 69 63 66 63 53 39 36 18 3 360 349 348 341 331 321 322 325 329 330 332 333 319 310 309 303 304 301 302 306 308 311 313 313 305 304 306 301 304 303 304 301 296 288 286 286 281 280 281 274 283 282 285 288 288 294 287 289 290 292 306 297 294 290 290 290 289 287 284
152 147 143 142 140 135 131 128 125 123 117 106 99 95 90 95 100 94 81 55 56 51 41 33 18 3 349 338 336 326 320 308 323 330 333 337 338 343 314 313 305 299 302 303 304 308 307 311 313 314 318 315 299 300 304 305 306 306 305 301 299 294 294 292 290 284 278 279 280 283 282 282 285 285 287 294 291 290 290 289 291 291 291 291 291
151 149 145 143 139 136 133 133 129 125 116 109 103 97 101 96 76 59 69 63 58 49 36 28 1 354 335 328 328 320 308 317 329 335 340 341 343 344 319 315 310 306 303 301 302 304 307 305 306 305 312 319 319 319 315 314 318 319 318 316 312 309 301 297 288 289 290 283 280 279 282 279 278 281 281 282 280 277 280 284 286 287 289 289 284
151 150 147 148 145 143 140 136 130 124 119 112 111 108 98 98 88 62 63 55 58 63 32 48 16 344 322 323 325 322 313 322 332 340 346 347 349 337 328 326 324 319 316 310 306 305 303 308 311 314 315 317 321 327 327 325 318 313 309 305 302 299 294 289 289 287 283 283 281 280 279 279 278 280 285 286 283 287 286 283 285 287 291 292 289
159 156 151 149 146 145 143 138 133 128 126 121 118 119 112 95 80 81 68 59 55 46 49 19 331 332 326 324 322 314 313 316 336 348 353 351 351 340 333 329 324 322 319 319 317 316 318 319 323 321 319 318 322 324 323 325 313 305 300 299 298 299 299 302 297 295 294 291 290 291 291 289 291 290 289 289 286 288 290 290 290 294 296 293 290
161 155 152 151 145 141 138 136 134 133 129 131 132 125 120 101 104 81 91 71 44 34 38 17 339 339 328 312 312 310 311 318 342 353 356 354 354 344 333 331 322 322 321 321 324 325 326 332 327 317 316 314 319 321 322 323 313 307 303 303 304 303 304 305 303 301 295 294 293 289 286 284 283 284 284 283 285 287 287 288 288 291 288 288 290
163 158 150 140 132 129 130 129 132 133 130 134 134 124 125 117 109 93 93 98 93 44 29 36 348 339 318 296 301 302 302 320 338 356 356 355 354 343 337 333 327 329 330 327 326 325 322 324 323 325 320 317 319 320 321 322 313 309 308 305 303 302 302 305 304 302 303 304 302 301 296 290 288 283 281 281 280 281 277 276 284 283 283 286 289
149 129 128 127 123 121 126 127 129 132 133 131 123 128 139 94 75 77 61 86 71 33 42 35 16 329 323 301 290 286 302 324 336 356 357 357 356 358 342 344 337 331 331 329 326 324 327 324 326 325 322 320 319 320 320 320 318 311 307 302 304 302 305 303 301 301 301 301 299 298 295 295 293 288 284 285 282 276 275 276 279 279 280 288 291
134 132 126 123 121 122 121 128 129 124 127 129 127 114 107 108 93 78 65 49 63 43 39 26 19 310 297 282 275 324 331 346 337 355 357 360 359 1 349 344 330 328 327 326 323 322 322 323 319 322 322 321 321 321 321 321 320 317 315 307 303 306 310 307 305 303 302 300 299 298 298 299 297 295 292 291 290 288 289 291 298 296 297 297 294
132 130 129 126 124 123 124 121 117 124 128 122 117 109 104 99 95 92 89 93 81 63 51 36 279 260 274 276 356 353 344 355 346 346 356 1 359 358 355 345 341 332 325 316 315 310 314 314 315 321 323 323 323 322 321 320 320 318 308 309 312 314 314 308 303 302 300 301 300 300 301 301 303 301 297 294 297 323 333 316 304 298 289 288 287
131 128 126 126 128 129 127 127 126 122 121 124 124 116 106 90 79 82 98 87 82 69 58 122 197 219 240 322 349 353 346 344 354 352 351 359 356 355 351 345 339 334 319 316 318 314 313 314 311 318 321 322 321 322 321 321 320 313 316 318 318 319 318 308 304 301 299 299 298 297 299 302 304 301 300 317 328 322 313 307 304 302 293 288 282
128 126 129 131 131 130 128 121 118 113 126 126 122 119 108 103 98 108 93 92 89 72 305 252 42 54 14 345 349 346 339 345 342 358 360 357 353 349 346 342 340 331 325 314 318 318 318 316 317 320 321 321 322 322 322 322 319 319 321 320 323 322 315 311 304 302 299 299 296 295 300 301 301 309 328 321 314 318 310 304 303 299 291 297 305
132 134 137 138 133 131 118 117 118 117 130 139 136 131 120 134 115 82 90 84 111 102 299 42 42 24 12 355 337 330 337 344 340 354 359 352 348 345 343 339 335 333 325 315 310 309 312 315 317 319 320 322 323 323 320 319 319 321 322 323 321 313 315 310 307 305 302 302 305 308 308 313 318 318 317 317 314 312 310 306 297 290 291 290 292
137 140 140 138 139 135 129 122 116 115 118 107 108 122 139 139 124 117 116 128 146 157 55 62 35 35 19 341 335 328 333 339 340 332 335 343 341 340 337 335 331 329 324 312 313 316 317 320 321 321 322 322 322 318 316 316 322 324 322 318 314 320 316 312 309 311 313 316 315 316 320 320 318 319 316 312 315 317 322 315 323 332 343 337 343
139 142 143 141 140 145 144 145 139 126 111 105 98 113 118 123 124 129 139 151 178 173 110 89 37 19 14 353 338 332 333 335 337 330 332 330 328 329 328 322 323 320 312 305 315 317 324 326 324 324 319 318 316 312 308 316 322 318 311 314 321 314 312 312 314 319 320 316 320 321 318 315 314 317 325 326 319 321 321 317 325 329 340 340 11
150 149 148 148 151 155 152 145 141 126 129 134 136 123 110 127 137 152 157 174 148 150 131 90 49 16 11 353 340 336 334 344 341 343 344 341 337 333 326 319 320 321 323 323 326 330 328 325 322 314 307 304 303 300 320 317 308 310 317 321 314 312 310 312 314 310 308 317 312 309 309 315 316 321 323 321 320 320 325 326 344 335 337 330 17
138 141 146 145 153 155 152 151 145 137 129 124 131 160 149 159 163 199 229 175 158 154 125 81 74 96 81 360 354 342 346 341 331 340 342 343 342 338 336 335 329 328 330 333 332 327 320 318 315 319 319 321 329 336 331 326 328 327 324 315 318 321 325 333 328 326 325 321 317 315 314 317 317 323 322 320 324 329 325 332 350 1 351 33 58
146 154 156 154 153 151 146 149 142 140 145 143 128 97 170 161 178 145 163 184 188 167 138 140 122 113 70 318 329 354 317 308 331 342 344 344 343 343 339 337 336 336 337 341 343 330 326 323 326 325 327 338 339 336 337 338 333 330 329 334 331 330 330 333 328 324 321 318 315 316 318 321 319 324 325 322 321 343 348 6 355 0 36 48 55
157 155 158 166 166 160 154 144 143 144 149 144 142 132 106 89 102 97 84 85 93 119 102 72 56 40 63 11 316 342 333 334 340 342 345 348 349 347 345 345 348 347 348 347 351 342 334 334 337 340 345 341 340 341 336 332 330 329 328 327 329 330 331 330 328 324 321 317 317 316 319 324 321 322 323 329 334 339 347 360 15 34 50 52 64
163 170 168 163 157 159 156 153 149 147 147 149 154 145 140 124 59 39 65 53 129 131 79 59 40 26 13 9 10 299 343 345 344 345 349 352 353 354 357 359 359 360 2 359 350 344 349 348 347 346 342 340 336 335 333 328 325 322 324 328 327 329 329 326 327 323 318 318 320 323 326 327 325 324 328 334 344 350 357 7 20 41 56 56 59
164 163 162 159 159 155 158 159 160 157 155 156 158 159 150 151 142 132 9 71 128 92 46 36 25 17 5 15 9 4 353 349 350 352 356 355 358 4 9 8 10 9 14 10 4 347 348 346 343 339 337 332 330 329 327 325 320 318 322 325 322 319 317 318 321 320 318 319 321 323 326 327 328 329 338 347 355 360 360 20 21 42 51 74 62
170 165 167 166 162 166 168 167 161 163 163 158 156 153 157 152 149 142 144 124 16 13 33 23 6 7 14 25 8 3 356 357 360 1 2 3 6 11 13 11 12 14 18 9 1 351 346 341 338 336 332 325 323 326 322 320 321 319 321 321 315 312 314 319 318 318 315 320 324 324 327 328 331 336 343 352 0 6 18 16 20 38 52 59 79
153 160 159 161 167 166 164 161 161 156 159 159 156 154 151 151 140 154 161 156 148 150 257 306 322 41 79 14 4 3 4 7 11 10 9 11 14 15 14 13 13 5 11 9 2 347 346 341 335 333 331 327 326 324 323 319 319 324 325 322 319 317 317 320 320 319 320 322 324 328 329 334 335 343 346 352 358 11 17 22 25 41 64 71 77
166 167 167 165 160 162 162 161 164 161 161 158 154 150 146 148 152 171 159 131 122 145 262 265 252 293 22 12 9 8 12 15 19 16 18 19 20 21 23 15 7 360 358 354 352 344 339 335 331 326 326 324 324 323 323 319 321 323 321 320 320 319 317 317 321 323 323 322 323 327 332 334 339 343 349 7 16 19 32 35 46 45 57 59 57
175 174 170 171 165 159 156 157 158 158 152 147 146 149 145 153 163 159 142 137 162 193 204 247 316 333 12 292 347 1 13 22 20 18 21 22 25 31 35 15 7 351 349 344 340 334 331 327 324 321 324 324 323 320 318 317 318 320 321 320 318 318 317 318 321 323 321 324 325 329 333 335 340 349 360 12 22 32 38 52 56 72 72 80 76
190 181 173 163 158 157 158 161 162 156 150 148 148 147 151 163 172 156 148 157 171 184 211 231 201 189 105 298 323 301 21 11 15 12 15 16 20 25 21 5 359 347 341 330 328 322 319 318 321 326 322 322 320 319 319 319 323 322 322 321 321 317 318 317 321 324 324 323 325 327 330 336 345 351 7 26 33 34 44 49 67 82 73 63 64
190 181 172 167 169 168 165 159 162 158 159 157 159 155 168 169 165 154 158 160 171 193 207 204 197 196 212 225 279 352 56 17 26 3 351 350 359 6 359 337 337 347 333 323 315 319 315 317 321 322 320 319 318 318 321 320 321 318 319 320 320 320 323 324 323 326 328 329 326 326 328 340 349 357 11 39 43 46 58 59 50 69 89 83 57
180 184 179 174 173 174 166 168 163 162 168 160 169 170 172 174 172 170 165 162 179 195 199 199 204 207 215 203 219 108 72 30 356 328 323 330 331 334 325 329 333 334 323 316 312 310 312 311 317 319 319 317 316 318 320 320 318 317 319 320 321 321 321 322 323 326 329 328 326 325 331 342 347 356 17 26 37 60 79 72 48 50 77 97 99
186 180 176 182 177 166 166 169 175 177 173 174 172 172 180 175 172 166 166 174 183 195 207 207 211 220 209 190 95 103 131 163 241 267 274 289 295 300 300 300 308 314 309 307 306 306 306 309 313 315 315 316 316 317 318 318 317 319 321 321 317 313 316 318 320 322 325 326 327 327 326 334 346 1 11 13 66 76 59 63 65 77 84 80 104
182 182 181 183 175 177 175 183 180 174 174 169 165 174 178 175 168 168 173 183 193 199 213 224 221 216 213 153 128 113 122 170 190 227 253 259 264 271 279 285 279 271 284 291 301 308 310 309 309 311 313 316 317 317 317 317 319 319 321 321 322 316 316 320 321 320 321 325 325 326 325 328 345 11 25 46 49 59 83 79 98 111 126 127 122
192 190 187 178 181 184 185 181 170 167 157 162 162 176 175 168 172 173 177 186 197 209 220 233 245 210 206 187 141 131 124 178 202 226 243 253 256 267 268 270 270 270 268 273 278 283 294 300 304 306 307 306 307 312 313 313 314 315 317 318 321 316 303 315 320 320 319 319 320 321 321 329 337 346 7 22 32 57 79 106 124 135 137 134 127
195 189 176 169 169 171 173 166 165 168 141 165 174 180 175 172 171 174 177 195 206 218 223 236 234 220 212 206 117 116 167 204 217 230 236 248 256 262 264 266 273 283 284 279 277 275 287 294 300 299 296 294 297 302 302 304 307 311 313 316 315 315 320 321 323 319 319 317 316 320 324 322 328 338 347 7 53 105 101 123 144 149 144 130 122
193 175 170 171 174 171 175 174 165 162 169 171 176 180 177 174 177 181 182 194 210 215 227 239 244 235 215 194 177 185 218 219 232 236 249 249 254 258 262 270 267 274 280 284 278 283 288 291 296 296 301 300 300 301 304 305 307 308 309 313 317 320 324 326 321 314 308 307 313 317 322 323 321 330 329 335 13 95 110 119 135 144 128 138 137
191 171 168 177 173 171 176 175 179 170 173 171 167 169 178 177 177 180 190 196 197 212 233 244 246 238 218 211 217 221 240 236 247 245 250 254 254 262 261 263 265 265 267 272 281 288 286 283 286 290 295 300 304 305 305 307 308 308 308 308 311 311 314 319 320 315 315 316 312 312 314 319 320 320 328 351 6 63 79 100 95 93 99 127 131
175 168 179 170 174 166 166 152 153 179 170 171 176 174 177 179 170 185 196 195 196 212 225 239 237 235 226 224 227 245 247 246 251 257 256 256 258 261 266 267 272 276 275 277 278 280 285 284 284 286 292 294 297 300 304 307 309 308 309 312 313 318 326 331 328 324 323 320 315 313 317 315 320 320 334 1 26 71 101 124 135 147 151 147 136
173 174 179 170 164 178 179 179 182 181 179 181 177 164 161 158 178 195 200 202 201 208 227 243 240 233 221 232 239 241 247 247 254 257 264 264 264 262 266 271 275 276 284 288 289 285 282 284 289 293 294 296 297 301 302 307 308 309 308 314 318 322 330 334 329 328 327 322 317 318 316 318 317 332 341 356 41 75 111 110 111 116 136 139 139
184 188 170 171 181 181 178 178 179 186 178 170 165 174 180 188 198 199 198 197 195 207 215 233 248 244 230 236 237 245 249 256 258 262 262 264 265 267 264 268 272 279 280 283 285 289 288 290 293 292 290 290 292 293 300 304 308 308 307 308 323 330 333 337 334 330 332 329 324 323 322 319 329 333 354 12 42 62 92 92 111 120 131 132 139
192 191 182 172 179 184 171 169 181 175 164 165 176 168 188 182 190 205 201 198 202 209 215 223 236 239 233 243 249 251 252 253 255 257 259 262 262 265 270 272 272 269 269 276 283 286 293 292 292 288 290 290 293 293 294 298 301 304 302 310 326 330 331 335 333 334 340 334 328 323 324 322 327 332 344 4 40 106 114 124 126 135 149 152 152
195 190 184 180 170 163 167 179 182 181 173 170 176 175 174 187 205 206 199 202 208 213 212 218 227 231 235 231 239 249 252 253 252 252 254 258 261 266 268 268 268 272 274 275 281 287 290 291 290 288 292 292 296 295 296 294 297 295 299 312 322 324 329 336 333 334 338 339 327 326 328 330 330 333 332 339 14 91 142 136 144 149 158 157 154